Location: Newark
(25.6108°S, 54.5803°W)
Time: 08:05:28
(UTC+00:00)

Courier 1B - Pass Details

Date: 02 November 2020
Orbit: 962 x 1209 km, 28.3° (Epoch: 02 December)

Event Time Altitude Azimuth Distance (km) Brightness Sun altitude
Rises 00:22:31 0° 288° (WNW) 3,835 11.0 -30.5°
Reaches altitude 10° 00:25:10 10° 288° (WNW) 2,918 10.3 -31.0°
Enters shadow 00:31:52 78° 310° (NW) 1,156 7.7 -32.1°
Maximum altitude 00:32:25 85° 15° (NNE) 1,142 - -32.2°
Drops below altitude 10° 00:40:08 10° 103° (ESE) 3,100 - -33.6°
Sets 00:43:02 0° 103° (ESE) 4,087 - -34.0°
